User: anonymous   Login
Location: Olda
(45.8833°N, 9.5500°E)
Time: 01:30:34
(UTC+00:00)
Language:

Cosmos 1777 Rocket - Orbit

View from above orbital plane
View from above orbital plane
View from above satellite
View from above satellite

Ground track
Ground track

The orbit data is extracted from the following two-line orbital elements,

1 16953U 86070B   21127.54469362 -.00000010  00000-0  54214-5 0  9990
2 16953  74.0115 179.1123 0011213  57.7526 302.4713 14.37423766815904
Epoch (UTC): 07 May 2021 13:04:21
Eccentricity: 0.0011213
inclination: 74.0115°
perigee height: 759 km
apogee height: 775 km
right ascension of ascending node: 179.1123°
argument of perigee: 57.7526°
revolutions per day: 14.37423766
mean anomaly at epoch: 302.4713°
orbit number at epoch: 81590

The dashed part of the orbit path shows where the satellite is in the earth's shadow,  

DLR